sat.trackr.live / text

‹ back to catalog

STARLINK-30120

NORAD 56824 · 2023-079B

PAYLOAD ACTIVE UNKNOWN

§ Identity

Operator
Country
US
Launch date
2023-06-04
Launch site
AFETR
Launch vehicle
Mass (kg)
RCS (m²)

Purposes: comms

External: N2YO · Heavens-Above · Gunter

§ Orbital elements

Epoch: 2026-09-19T22:54:11.970144Z

Period
94.27 min
Inclination
43.0021°
Eccentricity
0.0001105
Mean motion
15.27576972 rev/d
Perigee alt
482.3 km
Apogee alt
483.8 km
Semi-major
6,861.2 km
B*
2.1252e-5
RAAN
90.3685°
Arg perigee
271.9478°
Mean anomaly
88.1247°
Rev number
18,291

§ Raw data

STARLINK-301201 56824U 23079B   26262.95430521  .00000323  00000+0  21252-4 0  99962 56824  43.0021  90.3685 0001105 271.9478  88.1247 15.27576972182915

JSON: /api/v1/satellites/56824 · /tle

For live sub-satellite position, see the globe view (requires WebGL).

§ Visibility from observer

Set your observer location to see the next 7 days of passes ≥ 10°. The values pass through the URL so the page stays shareable.

No JS? Fill the form by hand. The geolocation button needs JavaScript.